Punta Gorda, FL

12:16 AM EDT on August 29, 2016 (GMT -0400)
Charlotte County

Weather History for KPGD - February, 2014

Change the Weather History Date:

Monday, February 10, 2014

  Actual Average Record
Temperature  
Mean Temperature 66 °F -  
Max Temperature 80 °F 73 °F 84 °F (2001)
Min Temperature 52 °F 50 °F 41 °F (2006)
Cooling Degree Days 1    
Growing Degree Days 16 (Base 50)    
Moisture  
Dew Point 54 °F    
Average Humidity 71    
Maximum Humidity 93    
Minimum Humidity 36    
Precipitation  
Precipitation 0.00 in - - ()
Sea Level Pressure  
Sea Level Pressure 30.09 in    
Wind  
Wind Speed 6 mph (North)    
Max Wind Speed 10 mph    
Max Gust Speed -    
Visibility 10 miles    
Events      
Averages and records for this station are not official NWS values.
T = Trace of Precipitation, MM = Missing Value Source: NWS Daily Summary

Daily Weather History Graph

Daily Weather History Graph

Search for Another Location

Airport or City:

Trip Planner

Search our weather history database for the weather conditions in past years. The results will help you decide how hot, cold, wet, or windy it might be!

Date:

Astronomy

Feb. 10, 2014 Rise Set
Actual Time 7:08 AM EST 6:16 PM EST
Civil Twilight 6:44 AM EST 6:40 PM EST
Nautical Twilight 6:16 AM EST 7:08 PM EST
Astronomical Twilight 5:49 AM EST 7:35 PM EST
Moon 2:53 PM EST (2/10) 3:51 AM EST (2/10)
Length of Visible Light 11h 56m
Length of Day
11h 08m
Waxing Gibbous, 84% of the Moon is Illuminated
Feb 10
Waxing Gibbous
Feb 14
Full
Feb 22
Last Quarter
Mar 1
New
Mar 8
First Quarter

Hourly Weather History & Observations

Time (EST) Temp. Heat Index Dew Point Humidity Pressure Visibility Wind Dir Wind Speed Gust Speed Precip Events Conditions
12:53 AM 55.9 °F - 53.1 °F 90% 30.10 in 10.0 mi North 4.6 mph - N/A   Clear
1:53 AM 55.0 °F - 53.1 °F 93% 30.09 in 10.0 mi North 4.6 mph - N/A   Clear
2:53 AM 54.0 °F - 52.0 °F 93% 30.08 in 10.0 mi NNE 4.6 mph - N/A   Clear
3:53 AM 53.1 °F - 51.1 °F 93% 30.07 in 9.0 mi NE 4.6 mph - N/A   Clear
4:53 AM 53.1 °F - 51.1 °F 93% 30.08 in 8.0 mi NNE 5.8 mph - N/A   Clear
5:53 AM 53.1 °F - 51.1 °F 93% 30.10 in 8.0 mi NNE 5.8 mph - N/A   Clear
6:53 AM 52.0 °F - 50.0 °F 93% 30.11 in 9.0 mi NE 5.8 mph - N/A   Clear
7:53 AM 55.9 °F - 53.1 °F 90% 30.13 in 10.0 mi NE 6.9 mph - N/A   Scattered Clouds
8:53 AM 61.0 °F - 55.9 °F 83% 30.13 in 10.0 mi ENE 8.1 mph - N/A   Clear
9:53 AM 69.1 °F - 57.9 °F 68% 30.14 in 10.0 mi NE 6.9 mph - N/A   Clear
10:53 AM 73.9 °F - 57.0 °F 55% 30.13 in 10.0 mi NNE 4.6 mph - N/A   Clear
11:53 AM 77.0 °F - 55.9 °F 48% 30.11 in 10.0 mi NW 4.6 mph - N/A   Partly Cloudy
12:53 PM 78.1 °F - 54.0 °F 43% 30.09 in 10.0 mi Calm Calm - N/A   Clear
1:53 PM 79.0 °F - 55.0 °F 44% 30.06 in 10.0 mi Variable 4.6 mph - N/A   Clear
2:53 PM 80.1 °F 80.0 °F 54.0 °F 40% 30.04 in 10.0 mi NNW 6.9 mph - N/A   Clear
3:53 PM 80.1 °F - 51.1 °F 36% 30.04 in 10.0 mi NW 10.4 mph - N/A   Clear
4:53 PM 79.0 °F - 51.1 °F 38% 30.04 in 10.0 mi NW 10.4 mph - N/A   Clear
5:53 PM 73.9 °F - 57.0 °F 55% 30.06 in 10.0 mi West 9.2 mph - N/A   Clear
6:53 PM 70.0 °F - 57.0 °F 63% 30.07 in 10.0 mi WNW 9.2 mph - N/A   Clear
7:53 PM 66.0 °F - 57.0 °F 73% 30.09 in 10.0 mi NW 5.8 mph - N/A   Clear
8:53 PM 64.0 °F - 55.9 °F 75% 30.09 in 10.0 mi NNW 8.1 mph - N/A   Clear
9:53 PM 64.0 °F - 55.0 °F 73% 30.09 in 10.0 mi NNW 4.6 mph - N/A   Clear
10:53 PM 59.0 °F - 55.0 °F 87% 30.10 in 10.0 mi NNE 6.9 mph - N/A   Clear
11:53 PM 57.9 °F - 54.0 °F 87% 30.09 in 10.0 mi NNE 5.8 mph - N/A   Clear